Home > Time Zones > World Clock > Weather > Norway > Moss > Past weeks

Flag for Norway Weather past 2 weeks in Moss, Norway

Now
64 °F

Sunny.


Feels Like: 64 °F
Forecast: 60 / 66 °F
Wind: 6 mph from Northwest

Location: Rygge

Current Time: Aug 4, 2015 at 8:16:13 PM

Latest Report: Aug 4, 2015 at 7:50 PM


Visibility: 10 mi

Pressure: 29.89 "Hg

Humidity: 94%

Dew point: 63 °F

Location of MossLocation

Historic Weather in Moss — Graph

°F

Moss temperature yesterday

Maximum temperature yesterday: 66 °F (at 2:20 PM)
Minimum temperature yesterday: 50 °F (at 6:50 AM)
Average temperature yesterday: 61 °F

Past Weeks' High & Low Weather Summary

 TemperatureHumidityPressure
High72 °F (Jul 30, 3:50 PM)100% (Jul 25, 3:50 AM)30.15 "Hg (Jul 25, 3:50 AM)
Low48 °F (Jul 25, 4:50 AM)35% (Jul 23, 6:50 PM)29.39 "Hg (Jul 26, 10:20 AM)
Average58 °F79%29.71 "Hg
* Reported Jul 20 6:20 PM — Aug 4 6:50 PM, Moss, Weather by CustomWeather, © 2015

Note: Actual official high and low records may vary slightly from our data, if they occured in-between our weather recording intervals... More about our weather records

Advertising

Moss weather history for previous 24 hours

 ConditionsComfort  
Time TempWeatherWind HumidityBarometerVisibility
6:50 PM
Tue, Aug 4
68 °FRain. Scattered clouds.5 mph83%29.92 "HgN/A
6:20 PM68 °FPassing clouds.3 mph83%29.92 "HgN/A
5:50 PM66 °FScattered clouds.3 mph83%29.92 "HgN/A
5:20 PM66 °FLight rain. Scattered clouds.3 mph83%29.95 "HgN/A
4:50 PM66 °FSunny.5 mph78%29.95 "Hg10 mi
4:20 PM66 °FPassing clouds.7 mph78%29.95 "HgN/A
3:50 PM66 °FSunny.7 mph78%29.95 "Hg10 mi
3:20 PM64 °FScattered clouds.6 mph83%29.98 "HgN/A
2:50 PM64 °FScattered clouds.5 mph83%29.98 "HgN/A
2:20 PM63 °FPartly sunny.2 mph83%30.01 "HgN/A
1:50 PM61 °FBroken clouds.5 mph94%30.01 "HgN/A
1:20 PM61 °FLight rain. Scattered clouds.5 mph88%30.01 "HgN/A
12:50 PM63 °FBroken clouds.5 mph88%30.01 "HgN/A
12:20 PM61 °FScattered clouds.6 mph88%29.98 "HgN/A
11:50 AM59 °FPartly sunny.5 mph94%29.98 "HgN/A
11:20 AM61 °FRain. Broken clouds.3 mph83%30.01 "Hg6 mi
10:50 AM59 °FSunny.7 mph88%29.98 "Hg10 mi
10:20 AM59 °FPartly sunny.5 mph82%30.01 "HgN/A
9:50 AM57 °FLight rain. Broken clouds.8 mph88%30.01 "HgN/A
9:20 AM57 °FSprinkles. Broken clouds.7 mph88%30.01 "HgN/A
8:50 AM55 °FScattered showers. Broken clouds.3 mph88%30.04 "HgN/A
7:50 AM55 °FSunny.2 mph88%30.04 "Hg10 mi
7:20 AM55 °FSunny.3 mph88%30.04 "Hg10 mi
6:50 AM55 °FSunny.2 mph82%30.04 "Hg10 mi
6:20 AM54 °FSunny.2 mph88%30.04 "Hg10 mi
5:50 AM54 °FCool.1 mph88%30.04 "HgN/A
5:20 AM52 °FCool.3 mph88%30.04 "HgN/A
4:50 AM52 °FCool.5 mph94%30.04 "HgN/A
4:20 AM50 °FCool.6 mph94%30.04 "HgN/A
3:50 AM50 °FCool.3 mph94%30.07 "HgN/A
3:20 AM52 °FCool.3 mph88%30.07 "HgN/A
2:50 AM52 °FCool.3 mph94%30.07 "HgN/A
2:20 AM52 °FPassing clouds.3 mph88%30.09 "HgN/A
1:50 AM54 °FPassing clouds.5 mph88%30.09 "Hg4 mi
1:20 AM54 °FCool.5 mph88%30.09 "HgN/A
12:50 AM54 °FPassing clouds.3 mph88%30.09 "HgN/A
12:20 AM54 °FPassing clouds.5 mph94%30.09 "HgN/A
11:50 PM
Mon, Aug 3
52 °FClear.3 mph94%30.12 "Hg10 mi
11:20 PM54 °FClear.2 mph88%30.12 "Hg10 mi
10:50 PM55 °FClear.2 mph82%30.12 "Hg10 mi
10:20 PM55 °FSunny.2 mph82%30.12 "Hg10 mi
9:50 PM59 °FSunny.2 mph68%30.12 "Hg10 mi
9:20 PM61 °FSunny.3 mph72%30.12 "Hg10 mi
8:50 PM63 °FSunny.3 mph64%30.12 "Hg10 mi
8:20 PM63 °FSunny.3 mph59%30.12 "Hg10 mi
Weather by CustomWeather, © 2015

See weather overviewHow to use our weather pages